Time,TemperatureF,DewpointF,PressureIn,WindDirection,WindDirectionDegrees,WindSpeedMPH,WindSpeedGustMPH,Humidity,HourlyPrecipIn,Conditions,Clouds,dailyrainin,SoftwareType,DateUTC
2013-11-01 00:54:00,69.0,-99.9,29.77,SSE,158,0.0,0.0,-999,0.00,,,0.00,,2013-11-01 04:54:00,
2013-11-01 01:23:00,70.0,-99.9,29.76,SSE,158,0.0,0.0,-999,0.00,,,0.00,,2013-11-01 05:23:00,
2013-11-01 01:34:00,70.0,-99.9,29.76,SSE,158,0.0,0.0,-999,0.00,,,0.00,,2013-11-01 05:34:00,
2013-11-01 01:53:00,68.0,-99.9,29.76,SSE,158,0.0,0.0,-999,0.00,,,0.00,,2013-11-01 05:53:00,
2013-11-01 02:02:00,68.0,-99.9,29.76,SSE,158,0.0,0.0,-999,0.00,,,0.00,,2013-11-01 06:02:00,
2013-11-01 02:22:00,69.0,-99.9,29.74,SE,136,0.0,0.0,-999,0.00,,,0.00,,2013-11-01 06:22:00,
2013-11-01 02:52:00,71.0,-99.9,29.73,SE,136,0.0,0.0,-999,0.00,,,0.00,,2013-11-01 06:52:00,
2013-11-01 03:22:00,68.0,-99.9,29.73,SE,136,0.0,0.0,-999,0.00,,,0.00,,2013-11-01 07:22:00,
2013-11-01 03:52:00,69.0,-99.9,29.72,SE,136,0.0,0.0,-999,0.00,,,0.00,,2013-11-01 07:52:00,
2013-11-01 04:22:00,65.0,-99.9,29.72,SE,136,0.0,0.0,-999,0.00,,,0.00,,2013-11-01 08:22:00,
2013-11-01 04:52:00,68.0,-99.9,29.72,SE,136,0.0,0.0,-999,0.00,,,0.00,,2013-11-01 08:52:00,
2013-11-01 05:22:00,67.0,-99.9,29.72,SE,136,0.0,0.0,-999,0.00,,,0.00,,2013-11-01 09:22:00,
2013-11-01 05:53:00,66.0,-99.9,29.72,SE,136,0.0,0.0,-999,0.00,,,0.00,,2013-11-01 09:53:00,
2013-11-01 06:23:00,67.0,-99.9,29.73,SE,136,0.0,0.0,-999,0.00,,,0.00,,2013-11-01 10:23:00,
2013-11-01 06:33:00,67.0,-99.9,29.73,SE,136,0.0,0.0,-999,0.00,,,0.00,,2013-11-01 10:33:00,
2013-11-01 06:43:00,67.0,-99.9,29.73,SE,136,0.0,0.0,-999,0.00,,,0.00,,2013-11-01 10:43:00,
2013-11-01 06:53:00,67.0,-99.9,29.73,SE,136,0.0,0.0,-999,0.00,,,0.00,,2013-11-01 10:53:00,
2013-11-01 07:22:00,67.0,-99.9,29.74,SE,136,0.0,0.0,-999,0.00,,,0.00,,2013-11-01 11:22:00,
2013-11-01 07:52:00,68.0,-99.9,29.74,SE,136,0.0,0.0,-999,0.00,,,0.00,,2013-11-01 11:52:00,
2013-11-01 08:22:00,68.0,-99.9,29.74,SE,136,0.0,0.0,-999,0.00,,,0.00,,2013-11-01 12:22:00,
2013-11-01 08:52:00,66.0,-99.9,29.75,SE,136,0.0,0.0,-999,0.00,,,0.00,,2013-11-01 12:52:00,
2013-11-01 09:22:00,68.0,-99.9,29.75,SE,141,4.0,0.0,-999,0.00,,,0.00,,2013-11-01 13:22:00,
2013-11-01 09:52:00,71.0,-99.9,29.75,SE,134,5.0,5.0,-999,0.00,,,0.00,,2013-11-01 13:52:00,
2013-11-01 10:22:00,72.0,-99.9,29.75,SSE,155,1.0,3.0,-999,0.00,,,0.00,,2013-11-01 14:22:00,
2013-11-01 10:52:00,74.0,-99.9,29.74,SSE,162,2.0,5.0,-999,0.00,,,0.00,,2013-11-01 14:52:00,
2013-11-01 11:02:00,74.0,-99.9,29.74,SSE,162,2.0,5.0,-999,0.00,,,0.00,,2013-11-01 15:02:00,
2013-11-01 11:22:00,74.0,-99.9,29.74,South,170,0.0,0.0,-999,0.00,,,0.00,,2013-11-01 15:22:00,
2013-11-01 11:44:00,77.0,-99.9,29.73,South,169,0.0,0.0,-999,0.00,,,0.00,,2013-11-01 15:44:00,
2013-11-01 11:54:00,77.0,-99.9,29.73,South,169,0.0,0.0,-999,0.00,,,0.00,,2013-11-01 15:54:00,
2013-11-01 12:04:00,77.0,-99.9,29.73,South,169,0.0,0.0,-999,0.00,,,0.00,,2013-11-01 16:04:00,
2013-11-01 12:12:00,77.0,-99.9,29.73,South,169,0.0,0.0,-999,0.00,,,0.00,,2013-11-01 16:12:00,